Regional Weather Roundup
Issued by NWS

Home | Current Version | Previous Version | Text Only | Print | Product List | Glossary On
Versions: 1 2 3 4 5 6 7 8 9 10 11 12 13 14 15 16 17 18 19 20 21 22 23 24 25 26 27 28 29 30 31 32 33 34 35 36 37 38 39 40 41 42 43 44 45 46 47 48 49 50
000
ASUS44 KLIX 251710
RWRLA
LOUISIANA WEATHER ROUNDUP
NATIONAL WEATHER SERVICE NEW ORLEANS LA
1100 AM CST THU DEC 25 2014

NOTE: "FAIR" INDICATES FEW OR NO CLOUDS BELOW 12,000 FEET WITH NO
      SIGNIFICANT WEATHER AND/OR OBSTRUCTIONS TO VISIBILITY.
      SKY/WX - SKY CONDITION AND SIGNIFICANT WEATHER.
      TMP - AIR TEMPERATURE.    DP   - DEWPOINT TEMPERATURE.
      RH  - RELATIVE HUMIDITY.  PRES - PRESSURE.
      HX  - HEAT INDEX.         WCI  - WIND CHILL INDEX.

*  THESE STATIONS ARE NOT NWS OR FAA STATIONS AND ARE NOT UNDER
   NWS QUALITY CONTROL.

LAZ040-048-061>063-065-066-069-251800-
SOUTHEAST LOUISIANA

CITY           SKY/WX    TMP DP  RH WIND       PRES   REMARKS
N.O. AUDUBON     N/A     56  38  51 MISG        N/A
N.O. INTL ARPT MOSUNNY   54  36  50 VRB5      30.28F
N.O. LAKEFRONT SUNNY     54  37  52 NE5       30.28F
N.O. DOWNTOWN* FAIR      54  34  47 NE5       30.28F
SLIDELL        SUNNY     53  35  50 CALM      30.27F
BATON ROUGE    SUNNY     54  37  52 SE7       30.26F
BOOTHVILLE     SUNNY     53  39  59 NE6       30.28F
BELLE CHASSE   SUNNY     53  35  50 VRB5      30.27F
BOGALUSA*        N/A     52  36  54 CALM      30.30F
GALLIANO*      SUNNY     56  35  46 MISG      30.28S
NEW ROADS*     FAIR      53  37  53 SE9       30.27R
GONZALES*      FAIR      53  38  55 SE6       30.27F
HAMMOND*       NOT AVBL
HOUMA*         SUNNY     52  36  54 S5        30.28S
PORT FOURCHON* SUNNY     54  37  54 NE6       30.31S

$$

LAZ041-044-053-054-251800-
SOUTHWEST LOUISIANA

CITY           SKY/WX    TMP DP  RH WIND       PRES   REMARKS
LAKE CHARLES   SUNNY     57  41  55 S12       30.24R
LAFAYETTE      SUNNY     55  37  50 S6        30.27S
PATTERSON      SUNNY     54  36  50 SE8       30.28S
SALT POINT       N/A     66  37  34 VRB3      30.27S
NEW IBERIA     SUNNY     56  38  50 SE12      30.27F
CHENAULT AIRPK MOSUNNY   57  41  54 SE14      30.25R

$$

LAZ027-028-251800-
CENTRAL LOUISIANA

CITY           SKY/WX    TMP DP  RH WIND       PRES   REMARKS
FORT POLK      SUNNY     54  39  58 S9        30.23R
ALEXANDRIA INT SUNNY     54  39  57 S8        30.23R
ALEXANDRIA     SUNNY     54  39  57 SE7       30.23R

$$

LAZ001-002-251800-
NORTHWEST LOUISIANA

CITY           SKY/WX    TMP DP  RH WIND       PRES   REMARKS
SHREVEPORT     SUNNY     54  37  52 S14G21    30.18R
BARKSDALE AFB  SUNNY     53  38  56 S12       30.18R
DTN SHREVEPORT SUNNY     53  36  52 S13       30.18R

$$

LAZ014-016-251800-
NORTHEAST LOUISIANA

CITY           SKY/WX    TMP DP  RH WIND       PRES   REMARKS
MONROE         SUNNY     52  39  61 S7        30.23R
TALLULAH       SUNNY     50  38  63 S8        30.23F

$$



USA.gov is the U.S. government's official web portal to all federal, state and local government web resources and services.